EHI
2 2 1 0 0 0 0 0 0 0 0 0 0 0 0 0 0 0 0 1 3 3 1 0 1 0 1 2 2 2 2 1 1 2 2 1 0 0 0 0 0 0 0 0
1 1 0 0 0 0 0 0 0 0 0 0 0 0 0 0 0 0 0 1 2 2 1 1 1 1 0 1 1 1 1 0 0 1 1 0 0 0 0 0 0 0 0 0
0 0 0 0 0 0 0 0 0 0 0 0 0 0 0 0 0 0 0 1 2 1 1 2 2 2 1 0 0 0 0 0 0 0 0 0 0 0 0 0 0 0 0 0
0 0 0 0 0 0 0 0 0 0 0 0 0 0 0 0 0 0 0 1 1 1 1 2 3 2 1 0 0 0 0 0 0 0 0 0 0 0 0 0 0 0 0 0
0 0 0 0 0 0 0 0 0 0 0 0 0 0 0 0 0 0 0 0 1 1 1 2 2 2 1 0 0 0 0 0 0 0 0 0 0 0 0 0 0 0 0 0
0 0 0 0 0 0 0 0 0 0 0 0 0 0 0 0 0 1 1 1 0 0 0 1 1 1 0 0 0 0 0 0 0 0 0 0 0 0 0 0 0 0 0 0
0 0 0 0 0 0 0 0 0 0 0 0 0 0 0 0 0 1 1 1 0 0 0 0 0 0 0 0 0 0 0 0 0 0 0 0 0 0 0 0 0 0 0 0
0 0 0 0 0 0 0 0 0 0 0 0 0 0 0 0 0 0 0 0 0 0 0 0 0 0 0 0 0 0 0 0 0 0 0 0 0 0 0 0 0 0 0 0
0 0 0 0 0 0 0 0 0 0 0 0 0 0 0 0 0 0 0 0 0 0 0 0 1 1 0 0 0 0 0 0 0 0 0 0 0 0 0 0 0 0 0 0
0 0 0 0 0 0 0 0 0 0 0 0 0 0 0 0 0 0 0 0 0 0 0 0 1 1 0 0 0 0 0 0 0 0 0 0 0 0 0 0 0 0 0 0
0 0 0 0 0 0 0 0 0 0 0 0 0 0 0 0 0 0 0 0 0 0 0 0 0 0 0 0 0 0 0 0 0 0 0 0 0 0 0 0 0 0 0 0
0 0 0 0 0 0 0 0 0 0 0 0 0 0 0 0 0 0 0 0 0 0 0 0 0 0 0 0 0 0 0 0 0 0 0 0 0 0 0 0 0 0 0 0
0 0 0 0 0 0 0 0 0 0 0 0 0 0 0 0 0 0 0 0 0 0 0 0 0 0 0 0 0 0 0 0 0 0 0 0 0 0 0 0 0 0 0 0
0 0 0 0 0 0 0 0 0 0 0 0 0 0 0 0 0 0 0 0 0 0 0 0 0 0 1 0 0 0 0 0 0 0 0 0 0 0 0 0 0 0 0 0
0 0 0 0 0 0 0 0 0 0 0 0 0 0 0 0 0 0 0 0 0 0 0 0 0 0 0 0 0 0 0 0 0 0 0 0 0 0 0 0 0 0 0 0
0 0 0 0 0 0 0 0 0 0 0 0 0 0 0 0 0 0 0 0 0 0 0 0 0 0 0 0 0 0 0 0 0 0 0 0 0 0 0 0 0 0 0 0
0 0 0 0 0 0 0 0 0 0 0 0 0 0 0 0 0 0 0 0 0 0 0 0 0 0 0 0 0 0 0 0 0 0 0 0 0 0 0 0 0 0 0 0
0 0 0 0 0 0 0 0 0 0 0 0 0 0 0 0 0 0 0 0 0 0 0 0 0 0 0 0 0 0 0 0 0 0 0 0 0 0 0 0 0 0 0 0
0 0 0 0 0 0 0 0 0 0 0 0 0 0 0 0 0 0 0 0 0 0 0 0 0 0 0 0 0 0 0 0 0 0 0 0 0 0 0 0 0 0 0 0
0 0 0 0 0 0 0 0 0 0 0 0 0 0 0 0 0 0 0 0 0 0 0 0 0 0 0 0 0 0 0 0 0 0 0 0 0 0 0 0 0 0 0 0
0 0 0 0 0 0 0 0 0 0 0 0 0 0 0 0 0 0 0 0 0 0 0 0 0 0 0 0 0 0 0 0 0 0 0 0 0 0 0 0 0 0 0 0
0 0 0 0 0 0 0 0 0 0 0 0 0 0 0 0 0 0 0 0 0 0 0 0 0 0 0 0 0 0 0 0 0 0 0 0 0 0 0 0 0 0 0 0
0 0 0 0 0 0 0 0 0 0 0 0 0 0 0 0 0 0 0 0 0 0 0 0 0 0 0 0 0 0 0 0 0 0 0 0 0 0 0 0 0 0 0 0
0 0 0 0 0 0 0 0 0 0 0 0 0 0 0 0 0 0 0 0 0 0 0 0 0 0 0 0 0 0 0 0 0 0 0 0 0 0 0 0 0 0 0 0
0 0 0 0 0 0 0 0 0 0 0 0 0 0 0 0 0 0 0 0 0 0 0 0 0 0 0 0 0 0 0 0 0 0 0 0 0 0 0 0 0 0 0 0
0 0 0 0 0 0 0 0 0 0 0 0 0 0 0 0 0 0 0 0 0 0 0 0 0 0 0 0 0 0 0 0 0 0 0 0 0 0 0 0 0 0 0 0
Wind_Speed
9 7 7 9 10 7 2 3 4 3 4 7 7 6 7 9 9 8 7 8 8 8 9 9 8 6 4 4 3 4 3 3 3 2 1 1 1 2 2 2 2 3 3 3
9 10 11 8 6 5 4 6 4 1 3 5 7 7 6 8 8 7 6 5 5 6 8 9 8 7 4 4 4 3 3 3 4 3 1 0 1 1 0 1 2 3 3 3
9 7 8 5 5 6 6 4 2 2 6 8 7 7 6 6 7 7 5 2 2 5 7 10 8 7 5 5 4 3 3 4 4 2 1 2 1 1 1 1 1 2 2 2
2 2 6 7 5 5 4 2 3 4 6 5 5 4 3 6 6 7 6 5 4 5 6 8 8 7 6 6 5 3 3 3 4 2 2 1 1 1 1 1 1 2 2 2
4 5 6 6 5 5 2 2 5 6 6 7 7 6 1 6 6 7 6 5 5 6 6 8 8 7 6 6 5 3 4 3 4 2 2 1 1 1 1 1 1 2 1 1
3 5 5 4 3 2 2 5 8 8 6 7 5 4 0 3 4 5 6 7 6 6 6 7 8 6 6 6 5 3 3 4 3 1 2 2 1 1 2 2 1 2 1 1
5 6 5 3 5 6 6 5 3 2 3 3 2 2 1 5 5 3 4 5 7 7 7 7 8 7 6 7 5 4 4 4 3 2 2 1 2 0 1 1 1 2 2 1
5 7 8 6 5 3 6 5 2 3 3 2 2 2 5 7 5 4 3 4 6 7 6 7 8 7 7 7 6 5 4 4 3 2 1 0 1 0 0 1 1 2 1 1
0 3 6 5 4 4 3 3 4 4 7 6 2 2 7 7 6 5 4 5 5 6 7 7 8 8 8 7 6 5 5 4 4 2 2 1 0 1 1 1 1 1 2 1
2 4 5 4 4 5 6 6 3 3 4 4 3 2 3 6 5 5 5 6 6 6 7 8 8 8 7 7 6 6 5 4 4 3 2 2 1 1 0 1 2 2 3 2
5 2 5 7 7 6 7 6 5 4 4 4 3 2 3 4 3 2 3 4 5 6 6 7 7 7 7 7 7 6 6 5 4 4 3 2 2 1 1 1 1 2 2 2
3 4 4 6 5 2 4 6 5 4 4 4 4 1 3 4 3 2 2 3 5 6 6 7 7 7 7 7 7 7 6 6 5 3 2 2 2 3 1 1 1 2 2 1
8 5 3 1 2 3 5 5 5 5 5 6 5 1 2 3 2 3 3 3 5 6 6 7 7 7 7 7 7 7 6 6 6 4 3 3 3 2 1 0 1 2 2 2
4 8 6 4 4 3 5 6 6 6 6 7 6 5 3 1 1 1 2 3 4 6 7 7 7 7 7 7 7 6 6 6 6 6 4 3 2 2 2 1 0 1 2 2
5 9 9 7 7 7 8 8 8 9 10 10 9 8 6 5 3 1 1 2 3 5 6 7 8 8 8 7 7 7 7 7 7 7 5 4 3 2 2 1 1 0 1 2
6 9 11 11 9 10 11 10 10 10 10 11 10 8 6 5 3 2 1 2 3 3 5 6 8 8 9 9 8 7 7 7 7 7 6 4 3 3 2 1 1 1 1 1
7 10 10 11 10 11 11 8 7 7 7 8 8 5 4 4 3 2 2 0 2 3 3 4 5 7 8 9 9 8 8 7 7 7 6 6 4 4 3 2 2 1 1 0
11 10 7 9 11 12 5 1 2 4 6 6 5 4 4 4 3 1 1 1 1 2 3 3 4 5 7 8 9 9 8 8 7 7 7 6 5 4 3 3 2 1 1 1
9 8 7 8 10 9 5 1 2 4 4 4 4 4 5 6 5 0 3 2 1 0 2 3 3 4 5 7 8 9 9 8 8 7 7 7 7 5 4 4 3 2 1 1
6 7 7 7 10 9 3 3 3 4 3 4 4 5 6 6 4 3 5 3 2 1 1 2 2 3 4 5 6 8 8 8 8 8 7 7 7 6 5 5 4 3 3 2
5 6 8 9 10 7 3 3 2 3 3 6 6 7 7 5 5 5 5 3 2 1 1 1 2 2 3 4 5 7 7 8 8 8 7 6 6 6 6 4 3 3 3 3
8 6 6 7 8 4 5 3 3 5 6 7 7 8 8 7 6 6 5 3 2 1 1 1 2 2 2 4 5 6 6 6 7 8 7 6 6 6 6 5 4 3 3 3
6 5 5 5 3 3 4 5 6 7 7 8 8 8 8 8 7 6 5 4 3 2 2 2 2 2 3 4 5 6 6 6 8 8 7 7 6 5 5 5 5 3 3 2
9 8 8 9 6 5 5 6 6 7 7 8 8 9 9 9 9 7 5 4 3 3 2 3 3 3 4 4 4 5 6 7 8 8 8 7 7 6 5 4 3 3 2 1
10 10 10 12 10 8 5 5 6 7 8 9 9 9 9 9 9 8 7 5 4 3 3 3 4 4 5 4 5 5 5 7 8 9 8 7 6 6 5 4 2 3 2 2
11 12 11 10 9 9 8 7 8 8 9 9 9 9 9 8 9 9 8 6 5 4 4 3 4 4 5 5 5 5 6 6 8 8 8 6 6 6 6 7 5 6 5 6
Wind_Direction
184 192 200 207 214 225 274 265 248 228 205 235 246 243 209 197 198 198 209 209 195 177 157 142 139 130 135 134 120 107 117 109 95 72 29 25 11 347 16 13 30 358 343 348
176 203 204 204 210 235 258 255 255 339 279 259 254 254 225 201 195 195 210 207 187 161 144 137 141 140 153 137 122 118 109 96 94 94 20 71 31 321 22 10 22 350 359 1
187 192 190 188 200 219 249 257 302 290 267 253 255 251 231 186 182 176 185 180 178 153 154 152 152 145 148 137 130 122 111 110 104 120 72 24 11 317 349 1 30 356 356 358
207 254 188 188 209 223 251 254 254 269 284 288 264 273 242 166 168 167 173 185 178 157 154 147 148 148 152 140 126 131 118 111 108 101 79 358 334 340 353 11 15 340 360 359
188 192 202 204 201 212 223 247 272 263 267 280 273 275 210 154 170 169 170 178 168 157 149 143 145 144 144 129 123 124 115 103 97 89 124 263 340 354 354 349 359 334 329 312
167 190 205 202 184 202 245 252 253 248 255 263 262 282 301 140 135 144 157 164 160 150 140 139 137 135 134 124 127 133 128 114 113 159 203 186 116 358 329 324 343 320 305 306
167 187 177 177 186 191 234 255 276 257 235 246 200 254 115 90 88 106 147 152 151 145 147 147 144 147 140 137 144 156 148 136 143 209 239 160 130 272 304 327 330 315 320 335
171 174 175 192 227 221 226 249 279 309 296 313 242 205 113 109 104 104 112 126 139 147 151 150 149 149 147 151 159 167 155 156 164 209 233 106 128 171 304 314 311 306 310 308
58 135 155 172 227 268 266 245 246 276 289 291 268 127 125 132 137 142 148 151 161 158 153 153 152 155 156 162 166 167 164 171 168 188 198 176 97 108 325 303 303 303 299 314
279 154 164 161 231 238 275 301 296 283 306 302 314 344 108 137 140 151 165 172 172 161 161 159 156 161 162 163 164 166 172 175 165 187 199 168 194 173 230 299 332 323 317 335
304 249 169 179 215 225 215 238 255 273 276 298 319 7 64 100 109 152 165 161 162 161 162 157 156 162 160 159 164 170 177 178 170 186 187 177 162 217 229 236 291 292 297 312
329 297 228 205 196 233 273 279 282 286 301 301 297 337 103 112 124 157 167 159 152 154 156 155 158 161 164 169 174 178 179 174 164 174 182 178 189 203 220 223 260 282 302 311
345 299 293 192 163 199 240 253 275 291 287 279 284 275 150 139 163 176 176 174 158 157 162 160 161 168 171 174 177 178 176 167 160 168 186 206 201 167 192 270 341 318 330 334
298 284 286 280 286 265 254 258 260 267 271 281 287 297 294 306 254 194 172 182 171 166 169 165 167 174 173 175 180 180 174 167 163 164 185 212 201 167 178 140 305 326 337 334
267 285 295 291 283 277 272 267 258 259 269 278 291 299 310 316 317 302 199 184 175 174 173 172 174 179 175 179 183 182 175 173 171 169 185 194 195 164 153 157 180 41 338 334
273 287 291 285 276 275 272 263 258 260 265 271 277 282 298 312 342 334 298 177 176 184 184 180 181 182 179 183 186 181 177 176 172 174 177 166 175 153 157 175 135 82 323 338
278 281 290 291 289 282 272 270 264 266 274 277 277 294 322 323 332 332 332 217 186 189 184 188 192 187 185 186 182 178 176 174 175 174 166 161 172 163 171 166 136 175 214 192
272 283 286 284 284 275 284 309 295 285 288 290 295 318 330 327 310 320 352 304 227 183 172 189 204 191 186 185 176 172 169 171 175 173 164 162 164 166 167 160 167 207 192 167
251 264 272 276 280 277 277 293 304 295 296 315 326 350 354 337 304 85 32 5 351 152 167 178 202 202 192 184 173 168 170 172 173 170 167 166 167 168 169 178 186 191 196 208
232 245 257 269 277 284 321 48 19 306 291 20 8 0 355 344 330 353 6 10 13 37 125 162 194 210 191 178 166 169 175 175 175 171 171 170 164 163 173 185 187 184 187 204
228 232 240 258 269 278 27 47 338 288 27 30 20 9 359 350 351 349 348 3 11 25 92 162 192 207 187 171 167 177 181 181 171 162 162 161 160 167 174 177 180 187 187 195
290 281 262 260 264 277 50 9 358 9 16 12 12 7 358 346 344 345 346 346 340 326 215 204 210 207 186 175 176 187 188 168 151 151 159 166 167 176 172 170 185 194 189 194
272 288 306 300 315 23 25 20 7 359 355 360 357 349 343 334 326 327 330 326 312 279 234 214 226 218 203 193 188 193 179 156 151 156 164 169 172 175 166 168 180 188 192 193
296 315 305 298 302 329 345 353 355 356 354 349 343 339 337 329 323 319 313 303 296 283 251 214 218 223 220 209 202 198 170 160 161 168 172 177 179 173 164 155 157 156 162 174
305 310 297 289 298 307 314 341 344 350 345 336 330 326 328 323 317 315 309 300 288 278 260 227 221 225 228 215 205 194 176 174 178 179 178 182 180 168 153 130 103 132 112 143
274 279 280 285 306 309 322 340 347 339 328 324 322 320 319 316 314 314 311 307 297 284 271 251 236 227 231 223 211 193 186 190 191 188 184 181 172 162 153 140 116 68 100 105